www.pogodaiklimat.ru

Погода и климат >> Архив погоды >> Мадагаскар >> Мурундава


ПОГОДА в Мурундаве

  • Прогноз погоды в Мурундаве
  • Монитор погоды в Мурундаве

АРХИВ ПОГОДЫ в Мурундаве

Время (UTC), дата Ветер
(напр.,м/с)
 
Видим.   Явления Облачность Т
(С)
Тd
(С)
f
(%)
Тe
(С)
Тes
(С)
Комфортность P
(гПа)
Po
(гПа)
Тmin
(С)
Tmax
(С)
R
(мм)
R24
(мм)
S
(см)
03 13.09 В 3 25 км 3/3 600 м
[Cu med, cong]
+16.0 1016.8 1015.9
06 13.09 СВ 4 40 км ясно +25.0 1018.1 1017.2
09 13.09 З 8 40 км ясно +29.0 1016.5 1015.6
12 13.09 З 7 40 км ясно +28.0 1014.7 1013.8
15 13.09 ЮЗ 4 25 км ясно +26.5 1014.5 1013.6
00 14.09 0 20 км 5/5 600 м
[Cu med, cong]
+22.0 1016.6 1015.7
03 14.09 В 2 25 км 5/5 600 м
[Cu med, cong]
+21.0 1017.1 1016.2
06 14.09 штиль 0 40 км 5/5 600 м
[Cu med, cong]
+27.0 1018.8 1017.9
09 14.09 З 6 40 км 3/3 600 м
[Cu med, cong]
+28.0 1017.7 1016.8
12 14.09 З 7 40 км 1/1 600 м
[Cu med, cong]
+29.0 1015.8 1014.9
15 14.09 З 4 25 км 1/1 600 м
[Cu med, cong]
+26.5 1015.4 1014.5
00 15.09 0 20 км 1/1 600 м
[Cu med, cong]
+20.0 1016.0 1015.1
03 15.09 В 3 25 км 1/1 600 м
[Cu med, cong]
+19.0 1016.6 1015.7
06 15.09 В 4 40 км ясно +26.0 1018.0 1017.1
09 15.09 З 5 40 км ясно +29.0 1016.6 1015.7
12 15.09 ЮЗ 7 40 км 1/1 600 м
[Cu med, cong]
+30.0 1014.9 1014.0
15 15.09 ЮЗ 6 25 км ясно +27.0 1015.1 1014.2
00 16.09 0 20 км ясно +21.0 1015.5 1014.6
03 16.09 Ю 3 25 км ясно +20.0 1016.0 1015.1
06 16.09 Ю 4 40 км ясно +26.0 1016.7 1015.8
09 16.09 З 7 40 км ясно +30.0 1015.2 1014.3
12 16.09 З 7 40 км ясно +29.0 1013.6 1012.7
15 16.09 ЮЗ 8 25 км ясно +26.0 1013.9 1013.0
00 17.09 0 20 км ясно +19.0 1014.5 1013.6
03 17.09 В 3 25 км ясно +18.0 1015.1 1014.2
06 17.09 СВ 4 40 км ясно +25.5 1015.7 1014.8
09 17.09 З 4 40 км ясно +29.0 1014.8 1013.9
12 17.09 З 7 40 км 1/1 600 м
[Cu med, cong]
+29.0 1013.0 1012.1
15 17.09 З 4 25 км ясно +26.0 1013.0 1012.1
03 18.09 В 4 25 км ясно +20.0 1014.8 1013.9
06 18.09 С 4 30 км 3/3 600 м
[Cu med, cong]
+26.0 1016.2 1015.3
09 18.09 З 7 40 км ясно +30.0 1015.6 1014.7
12 18.09 З 7 40 км 1/1 600 м
[Cu med, cong]
+29.0 1014.5 1013.6
15 18.09 З 4 25 км ясно +26.5 1015.2 1014.3
00 19.09 0 20 км ясно +22.0 1016.0 1015.1
03 19.09 В 0 20 км ясно +22.0 1016.0 1015.1
06 19.09 штиль 0 40 км 3/3 600 м
[Cu med, cong]
+27.0 1018.0 1017.1
09 19.09 штиль 0 40 км 3/3 600 м
[Cu med, cong]
+27.0 1018.0 1017.1
12 19.09 З 7 40 км 1/1 600 м
[Cu med, cong]
+28.5 1014.8 1013.9
15 19.09 ЮЗ 4 25 км ясно +26.0 1015.0 1014.1

 

Местоположение метеостанции Мурундава (Мадагаскар): широта -20.28 долгота 44.32 высота над уровнем моря 8 м.

В архиве по умолчанию представлена погода в Мурундаве за последнюю неделю. Архивные данные за месяц целиком и за предыдущие месяцы, начиная с января 2011 года, Вы можете получить, выбрав интересующий диапазон дат из раскрывающегося списка и нажав кнопку "Ввод!".


*Определитесь, кто Вы:
робот инопланетянин человек

Внимание! Время в таблицах - всемирное. Для получения местного времени необходимо прибавить поправку, которая равна 3 ч.

Смотрите также архив погоды в соседних городах и на ближайших метеорологических станциях:

Погода в Моромбе (Мадагаскар) (191 км)
Погода в Мэнтирано (Мадагаскар) (250 км)
Погода в Анцирабе (Мадагаскар) (292 км)
Погода в Фианаранцуа (Мадагаскар) (317 км)
Погода в Тулиаре (Мадагаскар) (350 км)
Погода в Антананариву (Мадагаскар) (368 км)
Погода в Антананариву (Мадагаскар) (370 км)
Погода в Бесалампи (Мадагаскар) (393 км)
Погода на Острове Жуан-ди-Нова (Реюньон) (403 км)
Погода в Манандзари (Мадагаскар) (446 км)

Пояснения к столбцам:

Ветер - указаны скорость ветра в м/с - средняя за 10 мин, порывы в срок и между сроками (в фигурных скобках) и направление, откуда дует ветер: С - северный, СВ - северо-восточный, В - восточный, ЮВ - юго-восточный, Ю - южный, ЮЗ - юго-западный, З - западный, СЗ - северо-западный.
Видимость - горизонтальная дальность видимости в метрах или километрах. При видимости от 1 до 10 км при отсутствии осадков обычно наблюдается дымка, при ухудшении видимости до 1 км и менее - туман. В сухую погоду видимость может ухудшаться дымом, пылью или мглою.
Явления - указаны атмосферные явления, наблюдавшиеся в срок или в последний час перед сроком; фигурными скобками обозначены явления, наблюдавшиеся между сроками (за 1-3 часа до срока); квадратными скобками обозначены град или гололедные отложения с указанием их диаметра в мм.
Облачность - указаны через наклонную черту общая и нижняя облачность в баллах и высота нижней границы облаков в метрах; квадратными скобками обозначены формы облаков: Ci - перистые, Cs - перисто-слоистые, Cc - перисто-кучевые, Ac - высококучевые, As - высокослоистые, Sc - слоисто-кучевые, Ns - слоисто-дождевые, Cu - кучевые, Cb - кучево-дождевые. Подробнее классификацию облаков см. в Атласе облаков (PDF).
T - Температура воздуха - температура, измеренная на высоте 2 м над землей.
Td - Температура точки росы - температура, при понижении до которой содержащийся в воздухе водяной пар достигнет насыщения.
f - Относительная влажность воздуха - влажноcть воздуха, измеренная на высоте 2 м над землей.
Te - Эффективная температура - температура, которую ощущает одетый по сезону человек в тени. Характеристика душности погоды. При расчете учитывается влияние влажности воздуха и скорости ветра на теплоощущения человека.
Tes - Эффективная температура на солнце - температура, которую ощущает человек, с поправкой на солнечный нагрев. Характеристика знойности погоды. Зависит от высоты солнца над горизонтом, облачности и скорости ветра. Ночью, в пасмурную погоду, а также при ветре 12 м/с и более поправка равна нулю.
P - Атмосферное давление - приведенное к уровню моря атмосферное давление.
Po - Атмосферное давление - измеренное на уровне метеостанции атмосферное давление.
Tmin - Минимальная температура - минимум температуры воздуха на высоте 2 м над землей.
Tmax - Максимальная температура - максимум температуры воздуха на высоте 2 м над землей.
R - Количество осадков - Количество выпавших осадков за период времени, мм. При наведении курсора мыши на число - период времени, за который выпало указанное количество осадков.
R24 - Количество осадков - Количество выпавших осадков за 24 часа, мм.
S - Снежный покров - Высота снежного покрова, см. При наведении курсора мыши на число - состояние снежного покрова и степень покрытия местности в баллах.